Scottsboro, AL

3:57 AM CST on December 13, 2017 (GMT -0600)
Scottsboro

Weather History for K4A6 - January, 2013

Change the Weather History Date:

Tuesday, January 8, 2013

  Actual Average (KHSV) Record (KHSV)
Temperature  
Mean Temperature 42 °F -  
Max Temperature 57 °F 45 °F 71 °F (1946)
Min Temperature 28 °F 27 °F 2 °F (1942)
Degree Days  
Heating Degree Days 22    
Moisture  
Dew Point 35 °F    
Average Humidity 75    
Maximum Humidity 93    
Minimum Humidity 51    
Precipitation  
Precipitation 0.00 in - - ()
Sea Level Pressure  
Sea Level Pressure 30.31 in    
Wind  
Wind Speed 2 mph (ESE)    
Max Wind Speed 7 mph    
Max Gust Speed -    
Visibility 4 miles    
Events      
Averages and records for this station are not official NWS values.
T = Trace of Precipitation, MM = Missing Value Source: NWS Daily Summary

Daily Weather History Graph

Daily Weather History Graph

Search for Another Location

Airport or City:

Trip Planner

Search our weather history database for the weather conditions in past years. The results will help you decide how hot, cold, wet, or windy it might be!

Date:

Astronomy

Jan. 08, 2013 Rise Set
Actual Time 6:51 AM CST 4:50 PM CST
Civil Twilight 6:24 AM CST 5:17 PM CST
Nautical Twilight 5:52 AM CST 5:49 PM CST
Astronomical Twilight 5:22 AM CST 6:19 PM CST
Moon 3:24 AM CST (1/8) 1:51 PM CST (1/8)
Length of Visible Light 10h 53m
Length of Day
9h 58m
Waning Crescent, 13% of the Moon is Illuminated
Jan 8
Waning Crescent
Jan 11
New
Jan 18
First Quarter
Jan 26
Full
Feb 3
Last Quarter

Hourly Weather History & Observations

Time (CST) Temp. Windchill Dew Point Humidity Pressure Visibility Wind Dir Wind Speed Gust Speed Precip Events Conditions
12:15 AM 30.2 °F - 28.4 °F 93% 30.31 in 3.0 mi Calm Calm - N/A   Clear
12:35 AM 28.4 °F - 26.6 °F 93% 30.30 in 3.0 mi Calm Calm - N/A   Clear
12:55 AM 28.4 °F - 26.6 °F 93% 30.31 in 3.0 mi Calm Calm - N/A   Clear
1:15 AM 28.4 °F 24.6 °F 26.6 °F 93% 30.31 in 3.0 mi NNE 3.5 mph - N/A   Clear
1:35 AM 28.4 °F - 26.6 °F 93% 30.30 in 3.0 mi Calm Calm - N/A   Clear
1:55 AM 28.4 °F 24.6 °F 26.6 °F 93% 30.29 in 3.0 mi North 3.5 mph - N/A   Clear
2:15 AM 28.4 °F - 26.6 °F 93% 30.30 in 3.0 mi Calm Calm - N/A   Clear
2:35 AM 32.0 °F 28.7 °F 28.4 °F 87% 30.29 in 4.0 mi NE 3.5 mph - N/A   Clear
2:55 AM 30.2 °F - 28.4 °F 93% 30.29 in 3.0 mi Calm Calm - N/A   Clear
3:15 AM 32.0 °F 27.5 °F 28.4 °F 87% 30.30 in 3.0 mi NW 4.6 mph - N/A   Clear
3:35 AM 32.0 °F - 28.4 °F 87% 30.30 in 3.0 mi Calm Calm - N/A   Clear
3:55 AM 32.0 °F - 28.4 °F 87% 30.29 in 3.0 mi Calm Calm - N/A   Clear
4:15 AM 32.0 °F - 28.4 °F 87% 30.29 in 3.0 mi Calm Calm - N/A   Scattered Clouds
4:35 AM 32.0 °F - 28.4 °F 87% 30.30 in 3.0 mi Calm Calm - N/A   Mostly Cloudy
4:55 AM 32.0 °F - 28.4 °F 87% 30.30 in 3.0 mi Calm Calm - N/A   Scattered Clouds
5:15 AM 32.0 °F - 28.4 °F 87% 30.30 in 3.0 mi Calm Calm - N/A   Partly Cloudy
5:35 AM 32.0 °F - 28.4 °F 87% 30.31 in 3.0 mi Calm Calm - N/A   Clear
5:55 AM 32.0 °F - 28.4 °F 87% 30.32 in 3.0 mi Calm Calm - N/A   Clear
6:15 AM 32.0 °F - 28.4 °F 87% 30.33 in 3.0 mi Calm Calm - N/A   Partly Cloudy
6:35 AM 32.0 °F - 28.4 °F 87% 30.34 in 3.0 mi Calm Calm - N/A   Clear
6:55 AM 32.0 °F - 28.4 °F 87% 30.35 in 2.5 mi Calm Calm - N/A   Partly Cloudy
7:15 AM 32.0 °F - 28.4 °F 87% 30.35 in 2.5 mi Calm Calm - N/A   Partly Cloudy
7:55 AM 32.0 °F 27.5 °F 30.2 °F 93% 30.36 in 2.5 mi ENE 4.6 mph - N/A   Scattered Clouds
8:15 AM 35.6 °F - 32.0 °F 87% 30.36 in 2.5 mi Calm Calm - N/A   Scattered Clouds
8:35 AM 37.4 °F - 32.0 °F 81% 30.37 in 2.5 mi Calm Calm - N/A   Haze
8:55 AM 37.4 °F 34.9 °F 32.0 °F 81% 30.37 in 3.0 mi NE 3.5 mph - N/A   Haze
9:55 AM 44.6 °F 43.1 °F 35.6 °F 71% 30.37 in 3.0 mi NE 3.5 mph - N/A   Haze
10:15 AM 46.4 °F 45.2 °F 35.6 °F 66% 30.37 in 4.0 mi North 3.5 mph - N/A   Haze
10:35 AM 48.2 °F - 35.6 °F 62% 30.36 in 3.0 mi NE 4.6 mph - N/A   Haze
10:55 AM 50.0 °F - 35.6 °F 58% 30.35 in 3.0 mi Calm Calm - N/A   Haze
11:15 AM 50.0 °F - 35.6 °F 58% 30.33 in 4.0 mi NNW 3.5 mph - N/A   Haze
11:35 AM 51.8 °F - 37.4 °F 58% 30.32 in 4.0 mi Calm Calm - N/A   Haze
11:55 AM 53.6 °F - 37.4 °F 54% 30.31 in 4.0 mi Calm Calm - N/A   Haze
12:15 PM 55.4 °F - 39.2 °F 54% 30.31 in 4.0 mi SSW 5.8 mph - N/A   Haze
12:35 PM 55.4 °F - 39.2 °F 54% 30.30 in 4.0 mi WSW 5.8 mph - N/A   Haze
12:55 PM 57.2 °F - 39.2 °F 51% 30.29 in 4.0 mi Calm Calm - N/A   Haze
1:15 PM 57.2 °F - 41.0 °F 55% 30.28 in 4.0 mi South 6.9 mph - N/A   Haze
1:35 PM 57.2 °F - 41.0 °F 55% 30.28 in 4.0 mi South 6.9 mph - N/A   Haze
1:55 PM 57.2 °F - 41.0 °F 55% 30.28 in 3.0 mi SW 3.5 mph - N/A   Haze
2:15 PM 57.2 °F - 41.0 °F 55% 30.28 in 3.0 mi SSW 3.5 mph - N/A   Haze
2:35 PM 57.2 °F - 41.0 °F 55% 30.28 in 4.0 mi South 5.8 mph - N/A   Haze
2:55 PM 57.2 °F - 41.0 °F 55% 30.27 in 3.0 mi South 4.6 mph - N/A   Haze
3:15 PM 57.2 °F - 41.0 °F 55% 30.28 in 4.0 mi SSE 4.6 mph - N/A   Haze
3:35 PM 57.2 °F - 41.0 °F 55% 30.27 in 4.0 mi SE 5.8 mph - N/A   Haze
3:55 PM 57.2 °F - 41.0 °F 55% 30.26 in 3.0 mi SSE 3.5 mph - N/A   Haze
4:15 PM 55.4 °F - 41.0 °F 58% 30.27 in 3.0 mi Calm Calm - N/A   Haze
4:35 PM 55.4 °F - 41.0 °F 58% 30.27 in 4.0 mi East 3.5 mph - N/A   Haze
4:55 PM 51.8 °F - 41.0 °F 67% 30.28 in 4.0 mi ESE 4.6 mph - N/A   Haze
5:15 PM 50.0 °F - 41.0 °F 71% 30.30 in 5.0 mi ESE 3.5 mph - N/A   Haze
5:35 PM 53.6 °F - 41.0 °F 62% 30.29 in 5.0 mi ESE 3.5 mph - N/A   Haze
5:55 PM 53.6 °F - 41.0 °F 62% 30.29 in 5.0 mi ESE 3.5 mph - N/A   Haze
6:55 PM 46.4 °F 45.2 °F 41.0 °F 81% 30.29 in 5.0 mi East 3.5 mph - N/A   Haze
7:35 PM 50.0 °F - 41.0 °F 71% 30.30 in 4.0 mi SE 3.5 mph - N/A   Haze
7:55 PM 50.0 °F - 41.0 °F 71% 30.30 in 4.0 mi Calm Calm - N/A   Haze
8:15 PM 46.4 °F - 41.0 °F 81% 30.30 in 4.0 mi Calm Calm - N/A   Haze
8:55 PM 44.6 °F 42.2 °F 41.0 °F 87% 30.29 in 4.0 mi East 4.6 mph - N/A   Partly Cloudy
9:35 PM 46.4 °F - 41.0 °F 81% 30.29 in 4.0 mi Calm Calm - N/A   Haze
9:55 PM 44.6 °F - 41.0 °F 87% 30.30 in 4.0 mi Calm Calm - N/A   Overcast
10:15 PM 46.4 °F - 41.0 °F 81% 30.31 in 4.0 mi Calm Calm - N/A   Haze
10:35 PM 46.4 °F - 41.0 °F 81% 30.31 in 4.0 mi Calm Calm - N/A   Overcast
10:55 PM 46.4 °F 45.2 °F 41.0 °F 81% 30.31 in 4.0 mi North 3.5 mph - N/A   Overcast
11:15 PM 46.4 °F - 41.0 °F 81% 30.32 in 4.0 mi Calm Calm - N/A   Haze
11:35 PM 46.4 °F - 41.0 °F 81% 30.32 in 4.0 mi Calm Calm - N/A   Haze
11:55 PM 46.4 °F - 41.0 °F 81% 30.32 in 4.0 mi Calm Calm - N/A   Haze